Theta_e
286 281 277 280 281 281 281 278 278 280 285 282 281 281 283 284 284 283 284 284 285 286 289 291 293 294 295 296 295 295 295 297 298 298 297 297 299 303 303 304 307 308 311 324
283 279 283 286 285 283 281 280 277 281 285 283 280 281 283 284 283 283 284 283 284 286 288 289 292 293 294 294 295 295 296 297 298 299 301 301 300 303 305 307 307 309 315 323
279 282 287 285 282 282 281 279 278 278 282 282 279 278 280 283 284 285 284 284 284 284 286 288 290 292 293 293 294 295 296 297 298 300 305 305 303 304 304 303 305 312 320 323
282 286 284 283 283 281 280 283 283 283 277 273 279 271 278 280 282 283 282 282 283 284 286 289 290 290 292 292 294 296 296 297 299 301 305 303 302 301 304 308 311 312 313 317
281 283 283 282 282 284 281 284 283 282 279 275 276 272 274 280 280 281 282 282 282 283 285 288 289 290 292 293 293 295 296 297 298 299 300 301 302 304 302 303 302 303 305 306
284 288 285 284 285 285 287 283 282 280 278 271 275 272 274 275 279 281 280 281 283 283 284 287 290 291 290 292 292 294 296 296 297 298 298 298 297 297 296 297 298 298 298 300
282 282 284 287 283 286 284 279 272 270 271 272 277 274 278 280 282 282 281 280 281 282 282 285 287 288 288 289 290 292 293 294 296 296 296 296 297 297 296 296 295 296 296 296
278 276 283 287 283 281 282 279 274 266 268 272 278 274 279 282 284 283 282 281 281 281 282 283 286 287 287 288 289 289 291 292 293 294 295 295 295 296 295 295 295 295 295 295
276 278 284 286 286 284 281 279 280 275 265 270 274 278 281 282 281 282 281 281 279 280 281 282 283 284 284 285 287 288 289 290 291 291 292 292 292 293 293 294 294 293 293 294
282 278 282 285 286 285 282 284 277 275 265 265 272 275 276 279 280 281 280 279 280 279 281 281 282 283 284 284 285 286 287 288 290 290 291 291 291 291 291 291 291 291 292 292
283 280 279 283 281 280 281 279 280 278 276 271 269 274 280 281 282 281 280 281 281 280 280 281 281 282 283 284 284 285 285 286 287 288 289 289 289 290 290 289 289 289 290 290
285 281 275 279 281 284 283 281 281 274 274 276 275 275 283 282 283 283 280 281 280 281 280 280 281 282 282 282 283 283 284 284 285 286 287 287 288 288 287 287 287 288 288 289
285 276 271 274 278 281 280 282 282 279 279 276 274 275 283 282 282 282 280 280 280 280 280 280 281 281 281 281 281 281 281 282 284 285 285 285 285 286 286 286 286 286 286 287
288 280 278 275 276 279 278 280 282 280 275 277 276 277 279 281 281 281 280 280 279 280 280 280 280 281 281 281 280 279 280 280 281 282 282 283 283 284 285 285 285 284 285 285
283 276 279 279 279 280 280 280 280 279 281 276 278 279 281 283 283 284 283 281 280 280 280 280 280 280 280 280 279 279 278 279 279 279 280 280 282 283 284 284 284 284 283 283
280 273 275 272 277 278 277 279 280 281 282 280 280 279 284 286 285 284 282 281 281 280 280 281 281 282 282 281 279 278 277 278 279 278 279 280 280 281 281 282 282 282 282 281
277 272 269 267 273 273 269 274 278 281 283 283 278 284 284 283 284 284 283 282 282 281 281 281 281 282 281 280 278 276 277 278 278 278 279 279 280 280 280 281 281 280 280 280
274 270 265 265 267 266 279 278 281 281 283 285 283 283 285 286 286 288 287 284 283 282 282 282 282 281 281 279 276 277 278 277 278 278 278 278 279 279 280 280 280 280 279 279
279 275 264 266 260 273 279 277 277 277 278 283 284 284 284 284 284 283 288 287 285 284 283 283 283 282 279 277 277 277 277 277 277 277 277 277 278 278 279 279 280 280 280 280
279 276 274 259 262 263 276 278 280 280 275 281 284 285 282 284 279 284 287 286 285 284 284 283 283 280 278 276 277 277 276 276 276 277 278 277 278 277 277 277 279 281 281 280
267 266 268 260 262 269 277 279 279 272 278 279 282 285 283 283 286 286 287 285 285 284 284 283 280 279 278 277 277 277 276 275 276 277 276 276 276 277 277 277 278 279 280 280
273 269 264 259 261 268 279 279 276 280 280 281 281 284 285 284 284 286 286 284 283 284 285 282 279 279 278 277 277 276 275 275 275 275 274 272 273 275 275 274 277 277 278 278
274 276 272 274 275 281 282 279 281 282 281 280 281 284 286 282 283 285 285 284 284 284 284 282 279 277 276 276 276 275 274 274 272 270 268 269 270 273 273 272 274 274 276 276
275 278 274 275 279 280 280 281 282 282 283 283 283 284 284 282 284 285 284 284 284 285 283 280 277 276 275 273 273 272 272 271 268 266 266 268 268 269 269 271 273 274 276 278
277 278 275 275 279 279 281 281 282 282 283 283 283 283 284 284 284 284 284 284 285 285 283 280 278 276 275 272 270 268 269 269 268 267 266 266 267 264 266 269 268 273 275 279
277 276 278 276 281 282 283 282 283 282 283 283 283 282 283 285 284 284 284 285 285 284 282 279 277 276 273 271 269 266 266 268 268 267 266 265 264 263 265 265 266 274 277 279
Wind_Speed
4 6 3 5 3 4 8 5 4 1 1 1 3 2 6 3 4 6 7 9 10 11 9 11 14 17 19 19 20 20 19 20 14 11 10 9 7 7 6 7 11 11 11 13
7 3 2 4 4 5 5 5 2 1 3 1 2 5 5 5 1 3 6 8 9 13 16 14 16 18 19 21 21 21 21 20 16 11 11 8 7 5 6 6 7 8 11 9
5 3 3 3 3 5 3 5 3 2 2 2 3 5 4 3 3 3 5 5 6 7 12 14 17 19 19 21 22 20 21 21 18 20 10 3 5 4 5 4 6 6 7 7
5 0 3 4 3 2 4 2 5 4 3 3 3 6 5 5 5 1 5 6 9 12 12 13 17 19 19 20 20 20 21 21 20 21 9 9 4 5 4 4 10 11 15 11
4 4 3 3 2 1 3 2 4 3 4 4 0 4 4 2 5 2 4 7 8 8 10 13 15 16 17 18 19 18 21 22 21 20 19 13 12 8 9 10 15 16 15 17
3 1 2 3 3 3 8 5 5 4 3 2 2 5 6 5 7 3 2 5 7 9 10 11 12 14 16 18 18 19 22 22 21 19 20 19 19 17 14 14 12 11 12 13
4 1 1 3 7 4 3 4 3 6 3 5 4 2 7 5 4 5 4 3 5 7 7 9 12 13 15 17 19 18 22 22 20 22 22 20 20 20 18 16 13 14 12 11
6 4 7 3 2 6 5 2 6 8 3 3 2 7 4 4 6 6 5 3 4 6 6 7 9 10 12 15 16 17 18 19 21 20 20 19 21 14 14 16 12 11 12 12
6 1 1 1 1 1 5 4 2 7 3 4 4 5 2 4 4 5 5 3 2 3 5 6 7 8 9 11 13 14 14 15 17 17 15 17 16 18 16 16 15 12 12 12
6 4 2 0 1 2 3 3 4 3 2 4 5 6 6 11 11 7 6 6 5 1 4 5 6 6 6 8 8 10 11 11 12 12 13 12 15 15 14 13 15 15 13 15
5 4 1 1 7 8 3 3 2 2 4 5 2 7 2 14 14 13 9 8 7 5 2 2 4 5 5 6 7 8 10 11 12 13 13 13 13 13 12 12 13 13 14 15
5 5 5 5 2 3 2 6 6 5 6 3 2 8 4 8 12 11 9 8 7 6 5 1 2 4 6 6 7 8 9 10 9 8 9 11 11 12 13 13 13 12 13 12
7 2 3 4 2 2 6 6 4 4 2 7 6 6 3 6 8 8 11 9 8 7 6 3 2 4 5 5 5 6 6 7 8 8 9 9 10 10 11 11 11 10 10 10
3 3 5 8 4 5 6 6 9 5 4 4 7 3 6 8 10 9 9 9 9 8 7 5 3 2 3 5 5 6 7 7 7 8 9 11 12 11 8 7 9 11 10 11
3 5 4 2 2 3 4 4 11 17 14 8 4 12 12 19 20 18 14 10 10 9 8 7 6 3 1 4 5 5 7 8 8 8 9 9 8 8 9 11 10 9 11 10
2 2 3 3 2 4 5 9 9 14 17 14 13 13 8 12 10 11 14 14 13 11 10 8 7 6 4 0 4 5 5 6 6 6 8 6 6 6 7 8 8 9 10 9
7 7 4 6 3 3 9 18 20 11 12 19 19 21 6 10 19 20 19 19 17 14 12 11 10 8 6 4 2 3 3 3 4 5 6 7 7 7 7 7 7 8 8 8
7 7 4 4 3 4 5 1 8 17 13 21 7 9 18 14 23 18 18 21 17 15 14 11 9 6 6 5 4 4 3 3 4 5 5 5 5 6 6 7 9 9 8 8
1 6 4 5 5 9 11 8 10 10 15 21 21 13 10 5 6 5 17 18 19 17 14 12 10 7 6 6 5 5 5 5 4 5 5 5 6 6 7 8 9 8 8 9
3 5 5 3 6 10 8 1 5 5 13 13 24 22 12 15 8 12 19 16 14 14 13 12 10 6 7 6 6 5 5 5 5 5 6 6 7 7 8 6 9 8 8 8
3 3 8 3 5 11 13 5 3 7 9 0 10 12 18 16 11 9 21 17 16 16 14 11 10 9 8 7 6 6 5 4 1 4 5 6 6 6 6 6 7 7 8 8
11 10 6 4 2 14 9 6 9 7 1 1 3 9 19 8 6 16 20 19 18 17 15 13 11 10 7 7 6 6 5 4 3 4 4 4 4 4 4 4 5 4 5 8
7 10 11 14 12 3 14 3 6 3 2 2 4 6 13 8 7 17 17 18 17 19 15 11 11 10 7 7 6 7 6 5 5 5 4 3 4 5 4 4 4 3 5 3
6 5 4 3 9 15 9 6 5 7 4 3 4 6 10 10 12 14 16 17 17 16 14 11 12 11 9 6 5 4 6 5 6 5 3 3 4 4 4 4 3 3 5 5
7 14 9 7 9 5 12 13 10 10 6 4 4 7 13 14 14 16 16 17 17 16 13 12 12 11 11 8 6 5 6 6 6 5 3 3 3 4 4 3 1 2 3 5
9 10 11 10 10 8 7 10 13 12 15 10 10 8 6 13 16 13 15 16 17 16 14 11 9 10 8 8 7 6 5 6 6 5 2 2 2 2 2 3 4 6 7 10
Wind_Direction
18 73 168 176 143 120 123 114 123 78 23 38 234 220 197 157 47 18 4 351 339 343 311 333 355 349 346 340 340 336 330 325 318 307 295 281 265 273 254 252 258 258 258 259
28 102 149 97 71 97 93 107 106 42 34 76 339 268 181 184 114 43 356 339 334 335 348 349 354 347 351 344 343 339 334 330 327 315 298 256 260 270 261 269 284 282 262 260
137 160 156 120 106 102 48 129 164 138 343 68 352 280 177 197 140 67 359 313 305 314 340 344 356 351 350 350 345 343 342 334 338 328 313 310 252 255 264 271 261 278 253 239
81 295 123 90 92 87 145 141 120 109 82 216 53 277 219 207 213 147 352 355 351 349 349 346 359 350 350 351 346 351 350 354 349 345 342 351 340 320 309 293 48 34 27 26
205 134 124 106 84 356 160 136 109 104 96 56 15 80 261 117 226 235 347 8 353 335 350 343 1 350 349 352 355 358 6 4 0 5 20 21 33 39 42 42 48 34 30 30
76 352 45 115 78 88 145 81 51 56 91 21 182 133 269 187 192 161 50 13 358 348 351 349 4 354 353 354 359 358 16 12 12 16 23 31 37 43 45 35 44 39 34 27
14 25 4 129 86 20 87 104 341 351 15 223 151 84 251 181 168 143 130 50 1 351 353 360 4 360 354 354 359 358 13 17 11 21 28 29 34 40 42 47 43 41 41 34
146 282 173 183 202 172 179 175 164 208 202 268 150 236 269 159 128 123 116 102 42 1 355 359 6 2 357 355 0 359 8 14 15 16 21 26 31 38 39 39 40 46 42 37
129 280 6 85 121 114 183 197 139 105 37 47 225 277 172 137 153 162 157 119 84 354 8 360 2 3 352 351 358 0 2 15 16 15 21 24 25 28 28 32 37 39 37 34
186 99 334 303 126 63 150 156 84 5 155 257 266 267 230 196 199 194 192 189 194 208 35 16 10 358 351 340 342 353 357 6 17 24 26 23 26 28 24 23 30 31 26 33
146 109 300 105 206 180 147 194 178 150 175 175 248 257 205 193 182 184 191 186 182 173 131 18 9 5 353 339 353 356 360 3 14 17 19 23 20 25 31 33 26 22 26 25
183 107 169 195 274 189 190 191 169 143 212 229 151 270 333 176 169 169 176 180 185 179 176 168 23 26 19 358 357 4 358 358 5 16 26 27 25 22 29 31 26 21 25 23
180 229 69 354 17 346 219 199 171 125 90 203 153 255 18 112 142 173 170 181 180 180 181 170 62 41 16 3 0 359 354 343 342 12 25 32 36 35 24 17 26 28 28 33
96 161 177 193 175 127 201 194 182 164 169 171 223 191 221 201 186 185 188 183 178 185 184 178 161 71 12 355 5 2 357 358 357 12 31 26 17 14 25 27 25 22 26 28
148 194 176 239 186 209 212 181 188 208 215 195 213 220 188 200 197 192 183 177 173 186 190 185 176 167 69 342 3 13 6 1 355 19 34 26 12 11 13 19 27 27 28 26
124 190 101 299 320 245 260 236 207 220 235 249 257 267 196 200 171 173 183 183 187 187 191 183 170 173 157 3 354 8 21 3 1 23 28 8 14 25 26 19 18 26 30 32
144 130 96 265 329 316 282 216 204 203 204 208 221 229 147 174 184 193 186 188 191 183 182 183 176 174 161 162 100 48 13 16 22 26 23 19 16 22 22 25 34 37 30 24
137 111 98 210 10 271 280 212 210 221 231 220 233 188 188 188 202 193 185 182 189 179 174 181 170 164 160 153 127 141 97 60 47 38 32 20 8 14 14 25 32 26 21 19
91 127 108 149 205 305 294 207 169 173 251 218 225 218 190 132 87 228 191 187 183 177 176 175 165 154 148 141 150 127 95 72 60 37 23 13 17 23 23 30 32 29 26 27
66 57 127 106 166 227 243 265 156 138 281 198 201 212 153 140 172 218 177 174 166 164 159 158 153 138 135 156 149 126 100 82 54 24 17 17 20 24 20 14 23 18 22 23
105 40 188 169 226 282 243 175 186 105 240 96 195 194 160 186 204 140 159 164 157 154 153 144 147 152 154 155 147 132 123 98 65 37 34 30 18 21 12 5 25 21 23 20
164 152 176 97 166 271 154 80 188 210 190 216 149 164 187 188 127 149 154 151 152 152 153 153 151 150 155 155 156 139 146 154 86 58 51 35 20 21 16 6 3 13 19 28
204 187 179 188 204 213 201 189 211 160 205 218 176 170 180 143 153 156 153 150 152 152 155 156 154 146 152 168 161 150 169 153 110 80 50 24 22 19 2 18 15 23 27 25
236 168 212 118 220 230 221 250 229 204 223 219 198 151 162 151 153 155 151 151 152 155 157 153 148 154 165 169 144 151 150 127 111 97 53 30 42 2 10 27 11 36 36 14
185 150 163 265 272 331 246 226 215 206 198 168 148 163 164 150 162 156 156 156 158 156 153 160 166 163 177 154 149 155 146 137 117 110 87 30 48 18 5 16 305 354 347 6
186 170 183 216 204 189 234 205 191 189 198 179 158 149 166 161 157 160 159 160 157 160 156 162 161 164 166 152 150 160 160 142 134 125 130 75 40 12 28 18 354 18 29 25